EW9837 Weather Reports


Display with metric or nautical units.
time (UTC)temp
F
wind
direction
speed
MPH
gust
MPH
rain 1hr
in
rain 24hr
in
rain mn
in
humidity
%
barometer
mb
20260905044536 51 180 0.0 0.0 0.00 0.02 0.02 93 1018.4
20260905043035 52 180 0.0 0.0 0.00 0.02 0.02 93 1018.2
20260905041535 52 180 0.0 2.0 0.00 0.02 0.02 92 1018.2
20260905040108 52 178 0.0 3.0 0.00 0.02 0.02 92 1018.1
20260905034537 52 164 1.0 3.0 0.00 0.02 0.02 90 1018.0
20260905031534 53 177 1.0 3.0 0.00 0.02 0.02 87 1017.8
20260905030033 55 205 3.0 3.0 0.00 0.02 0.02 86 1017.8
20260905024535 56 85 0.0 3.0 0.00 0.02 0.02 84 1017.7
20260905023037 57 51 2.0 5.0 0.00 0.02 0.02 83 1017.8
20260905021533 58 27 0.0 5.0 0.00 0.02 0.02 80 1017.7
20260905020035 59 22 0.0 1.0 0.00 0.02 0.02 77 1017.6
20260905014536 59 34 1.0 3.0 0.00 0.02 0.02 76 1017.3
20260905013033 59 61 2.0 5.0 0.00 0.02 0.02 76 1017.2
20260905011534 60 34 1.0 3.0 0.00 0.02 0.02 76 1017.2
20260905010106 60 22 0.0 3.0 0.00 0.02 0.02 75 1017.1
20260905004533 60 325 1.0 4.0 0.00 0.02 0.02 74 1016.9
20260905001535 59 316 1.0 5.0 0.00 0.02 0.02 76 1016.9
20260905000109 59 327 1.0 4.0 0.00 0.02 0.02 76 1016.9
20260904234537 59 322 2.0 5.0 0.00 0.02 0.02 74 1016.9
20260904231535 60 232 0.0 3.0 0.00 0.02 0.02 72 1016.8
20260904224532 59 128 2.0 6.0 0.00 2.61 0.02 73 1016.6
20260904223031 59 109 4.0 8.0 0.00 2.61 0.02 75 1016.6
20260904221536 59 91 2.0 6.0 0.00 2.61 0.02 77 1016.6
20260904214534 61 243 0.0 4.0 0.00 2.61 0.02 75 1016.6
20260904213036 60 28 2.0 6.0 0.00 2.61 0.02 78 1016.4
20260904204537 58 67 0.0 2.0 0.00 2.61 0.02 80 1016.2
20260904203034 58 93 1.0 4.0 0.00 2.61 0.02 80 1016.3
20260904201535 59 72 2.0 5.0 0.00 2.61 0.02 77 1016.4
20260904200032 60 45 3.0 6.0 0.00 2.61 0.02 76 1016.4
20260904193034 57 35 1.0 4.0 0.00 2.61 0.02 81 1016.6
20260904191536 56 341 1.0 4.0 0.00 2.61 0.02 82 1016.6
20260904190035 56 339 1.0 5.0 0.00 2.61 0.02 82 1016.6
20260904184610 57 1 1.0 4.0 0.00 2.61 0.02 82 1016.7
20260904183036 55 54 0.0 3.0 0.00 2.61 0.02 83 1016.6
20260904181533 55 338 1.0 4.0 0.00 2.62 0.02 83 1016.5
20260904180107 57 356 1.0 5.0 0.00 2.62 0.02 82 1016.5
20260904174535 55 81 1.0 4.0 0.00 2.62 0.02 89 1016.5
20260904173106 52 76 0.0 3.0 0.00 2.62 0.02 91 1016.4
20260904170036 53 56 2.0 4.0 0.00 2.62 0.02 92 1016.3
20260904164535 54 49 2.0 4.0 0.00 2.62 0.02 93 1016.2
20260904163034 53 11 0.0 4.0 0.00 2.62 0.02 97 1016.3
20260904161532 51 346 0.0 5.0 0.00 2.62 0.02 98 1016.2
20260904160033 50 24 0.0 3.0 0.00 2.62 0.02 98 1016.0
20260904154530 49 17 0.0 3.0 0.00 2.62 0.02 98 1015.8
20260904153035 49 360 1.0 3.0 0.00 2.62 0.02 98 1015.7
20260904151535 49 61 0.0 0.0 0.00 2.62 0.02 98 1015.5
20260904150035 48 90 0.0 0.0 0.00 2.62 0.02 98 1015.4
20260904144535 48 90 0.0 0.0 0.00 2.62 0.02 98 1015.4
20260904143039 48 114 0.0 3.0 0.00 2.62 0.02 98 1015.1
20260904141536 47 180 0.0 0.0 0.00 2.62 0.02 98 1015.0
20260904140037 47 180 0.0 0.0 0.00 2.62 0.02 98 1014.9
20260904134608 47 180 0.0 0.0 0.00 2.62 0.02 98 1014.7
20260904133036 47 180 0.0 0.0 0.00 2.62 0.02 98 1014.6
20260904131534 47 180 0.0 0.0 0.00 2.62 0.02 98 1014.5
20260904130035 47 180 0.0 2.0 0.01 2.62 0.02 98 1014.3
20260904124535 47 180 0.0 0.0 0.01 2.62 0.02 98 1014.4
20260904123034 47 180 0.0 0.0 0.01 2.62 0.02 98 1014.4
20260904121606 47 180 0.0 0.0 0.01 2.62 0.01 98 1014.3
20260904120035 47 180 0.0 1.0 0.01 2.61 0.01 98 1014.2
20260904114536 48 180 0.0 2.0 0.01 2.61 0.01 98 1014.1
20260904111535 48 170 0.0 1.0 0.01 2.61 0.00 97 1013.9
20260904110109 48 135 0.0 0.0 0.00 2.60 0.00 97 1013.7
20260904104536 47 135 0.0 0.0 0.00 2.60 0.00 97 1013.6
20260904103105 47 135 0.0 0.0 0.00 2.60 0.00 97 1013.5
20260904101536 48 135 0.0 1.0 0.00 2.60 0.00 97 1013.4
20260904094536 47 247 0.0 1.0 0.00 2.60 0.00 97 1013.2
20260904093034 47 271 1.0 4.0 0.00 2.60 0.00 97 1013.2
20260904091531 47 343 0.0 3.0 0.00 2.60 0.00 97 1013.2
20260904090035 47 139 1.0 4.0 0.00 2.60 0.00 97 1013.1
20260904084536 47 168 2.0 3.0 0.00 2.60 0.00 97 1013.0
20260904083035 47 202 0.0 0.0 0.00 2.60 0.00 97 1013.0
20260904081531 47 202 0.0 1.0 0.00 2.60 0.00 97 1013.1
20260904080038 48 174 2.0 4.0 0.00 2.60 0.00 97 1013.1
20260904074531 47 162 0.0 3.0 0.00 2.60 0.00 97 1013.1
20260904073036 47 135 0.0 2.0 0.00 2.60 0.00 96 1013.1
20260904071530 47 135 0.0 0.0 0.00 2.60 0.00 96 1013.1
20260904070041 47 149 0.0 3.0 0.00 2.60 0.00 96 1013.0
20260904064529 47 151 0.0 2.0 0.00 2.60 2.60 96 1013.0
20260904061535 47 135 0.0 0.0 0.00 2.60 2.60 95 1013.0
20260904060036 48 128 0.0 3.0 0.00 2.60 2.60 95 1012.9
20260904054537 48 137 0.0 3.0 0.00 2.60 2.60 95 1012.9
20260904053036 48 179 0.0 3.0 0.00 2.60 2.60 95 1013.0